FW1358 Weather Reports


time (UTC)temp
C
wind
direction
speed
KPH
gust
KPH
rain 1hr
cm
rain 24hr
cm
rain mn
cm
humidity
%
barometer
mb
20260506221303 13 200 0.0 0.0 0.03 2.03 2.03 92 1014.7
20260506220803 13 200 0.0 0.0 0.03 2.03 2.03 92 1014.9
20260506215803 13 200 0.0 0.0 0.00 2.01 2.01 92 1014.9
20260506215306 13 200 0.0 0.0 0.00 2.01 2.01 92 1014.9
20260506214803 13 200 0.0 0.0 0.00 2.01 2.01 92 1014.8
20260506214303 13 200 0.0 0.0 0.00 2.01 2.01 92 1014.6
20260506212306 13 200 0.0 0.0 0.00 2.01 2.01 91 1014.0
20260506211303 13 200 0.0 0.0 0.00 2.01 2.01 92 1013.5
20260506210803 13 200 0.0 0.0 0.00 2.01 2.01 92 1013.5
20260506205802 13 200 0.0 0.0 0.00 2.01 2.01 92 1013.5
20260506204803 13 200 0.0 0.0 0.00 2.01 2.01 92 1013.7
20260506204302 13 200 0.0 0.0 0.00 2.01 2.01 92 1013.8
20260506203803 13 200 0.0 0.0 0.00 2.01 2.01 91 1013.8
20260506201803 13 200 0.0 0.0 0.00 2.01 2.01 91 1013.9
20260506201303 14 200 0.0 0.0 0.00 2.01 2.01 91 1013.5
20260506195306 14 200 0.0 0.0 0.03 2.01 2.01 92 1013.4
20260506194803 14 200 0.0 0.0 0.03 2.01 2.01 92 1013.4
20260506194303 14 200 0.0 0.0 0.05 2.01 2.01 92 1013.4
20260506193803 13 200 0.0 0.0 0.08 2.01 2.01 92 1013.3
20260506193302 13 200 0.0 0.0 0.08 2.01 2.01 92 1013.7
20260506192803 13 200 0.0 0.0 0.08 2.01 2.01 93 1013.6
20260506192305 13 200 0.0 0.0 0.08 2.01 2.01 93 1013.7
20260506191303 13 200 0.0 0.0 0.08 2.01 2.01 93 1013.8
20260506190303 13 200 0.0 0.0 0.08 2.01 2.01 92 1013.6
20260506185803 13 200 0.0 0.0 0.08 2.01 2.01 92 1014.2
20260506184303 13 200 0.0 0.0 0.03 1.96 1.96 92 1014.5
20260506183803 13 200 0.0 0.0 0.00 1.93 1.93 92 1014.3
20260506182306 13 200 0.0 0.0 0.00 1.93 1.93 92 1014.1
20260506181303 13 200 0.0 0.0 0.00 1.93 1.93 92 1013.7
20260506180303 13 200 0.0 0.0 0.00 1.93 1.93 92 1013.8
20260506175306 13 200 0.0 0.0 0.00 1.93 1.93 92 1013.3
20260506174803 13 200 0.0 0.0 0.00 1.93 1.93 92 1013.3
20260506174302 13 200 0.0 0.0 0.00 1.93 1.93 92 1013.6
20260506173303 13 200 0.0 0.0 0.00 1.93 1.93 92 1013.6
20260506172803 13 200 0.0 0.0 0.00 1.93 1.93 92 1013.8
20260506171803 13 200 0.0 0.0 0.00 1.93 1.93 92 1013.8
20260506170802 13 200 0.0 0.0 0.00 1.93 1.93 92 1012.8
20260506165305 13 200 0.0 0.0 0.00 1.93 1.93 92 1013.9
20260506164303 13 200 0.0 0.0 0.00 1.93 1.93 92 1014.3
20260506163803 13 200 0.0 0.0 0.00 1.93 1.93 92 1013.7
20260506162306 13 200 0.0 0.0 0.00 1.93 1.93 92 1013.5
20260506161803 13 200 0.0 0.0 0.00 1.93 1.93 93 1013.3
20260506161302 13 200 0.0 0.0 0.00 1.93 1.93 92 1013.5
20260506160802 13 200 0.0 0.0 0.00 1.93 1.93 92 1013.6
20260506155802 13 200 0.0 0.0 0.00 1.93 1.93 92 1013.6
20260506155305 13 200 0.0 0.0 0.00 1.93 1.93 92 1013.7
20260506154303 13 200 0.0 0.0 0.00 1.93 1.93 93 1013.6
20260506153803 13 200 0.0 0.0 0.00 1.93 1.93 92 1013.5
20260506153302 13 200 0.0 0.0 0.00 1.93 1.93 92 1013.5
20260506152305 13 200 0.0 0.0 0.00 1.93 1.93 92 1013.3
20260506151803 13 200 0.0 0.0 0.00 1.93 1.93 92 1013.3
20260506142803 14 200 0.0 0.0 0.03 1.93 1.93 93 1012.1
20260506141303 14 200 0.0 0.0 0.08 1.93 1.93 93 1012.0
20260506140302 14 200 0.0 0.0 0.20 1.93 1.93 92 1011.1
20260506135802 14 200 0.0 0.0 0.23 1.93 1.93 92 1011.1
20260506135305 14 200 0.0 0.0 0.25 1.93 1.93 92 1011.1
20260506134302 13 200 0.0 3.2 0.28 1.93 1.93 92 1011.0
20260506133802 13 108 0.0 0.0 0.28 1.93 1.93 92 1010.7
20260506133302 13 108 0.0 0.0 0.28 1.93 1.93 92 1010.9
20260506132803 13 108 0.0 0.0 0.25 1.91 1.91 91 1011.1
20260506132305 14 108 0.0 3.2 0.25 1.91 1.91 91 1011.7
20260506131803 14 108 0.0 3.2 0.23 1.88 1.88 91 1011.8
20260506130803 14 277 0.0 0.0 0.13 1.78 1.78 90 1012.6
20260506130304 14 277 0.0 0.0 0.08 1.73 1.73 90 1013.1
20260506124303 15 277 0.0 0.0 0.00 1.65 1.65 89 1012.4
20260506123803 15 277 0.0 0.0 0.00 1.65 1.65 89 1012.3
20260506122305 16 277 0.0 0.0 0.03 1.65 1.65 87 1011.4
20260506121303 17 277 0.0 1.6 0.08 1.65 1.65 88 1011.1
20260506115803 18 329 0.0 0.0 0.20 1.65 1.65 93 1009.7
20260506115306 18 329 0.0 1.6 0.25 1.65 1.65 93 1009.4
20260506114803 18 329 0.0 4.8 0.30 1.65 1.65 92 1009.3
20260506113303 18 301 0.0 16.1 0.46 1.65 1.65 92 1009.5
20260506112305 18 202 1.6 9.7 0.51 1.63 1.63 92 1008.8
20260506111802 18 106 0.0 4.8 0.51 1.60 1.60 92 1009.1
20260506111303 18 275 0.0 4.8 0.61 1.57 1.57 92 1009.2
20260506110303 18 15 0.0 0.0 0.97 1.52 1.52 92 1009.3
20260506105305 18 15 0.0 0.0 0.86 1.40 1.40 92 1010.0
20260506103803 18 15 0.0 0.0 0.79 1.24 1.24 92 1010.1
20260506100803 18 339 0.0 1.6 0.46 0.66 0.66 90 1009.8
20260506100303 18 328 0.0 0.0 0.38 0.56 0.56 90 1009.5
20260506094803 18 328 0.0 1.6 0.43 0.51 0.51 89 1008.8
20260506094302 18 68 0.0 3.2 0.46 0.48 0.48 89 1008.8
20260506093802 18 330 0.0 3.2 0.46 0.46 0.46 88 1008.7
20260506092803 18 5 0.0 0.0 0.36 0.36 0.36 87 1009.1
20260506091803 19 5 0.0 1.6 0.20 0.20 0.20 86 1009.1
20260506091303 19 5 0.0 1.6 0.20 0.20 0.20 85 1009.0
20260506090302 20 303 0.0 0.0 0.18 0.18 0.18 83 1009.1
20260506085802 20 303 0.0 0.0 0.13 0.13 0.13 82 1009.2
20260506084803 20 303 0.0 0.0 0.08 0.08 0.08 79 1008.6
20260506084302 21 303 0.0 3.2 0.03 0.03 0.03 76 1008.6
20260506082803 21 19 0.0 4.8 0.00 0.00 0.00 69 1008.0
20260506082305 21 6 0.0 4.8 0.00 0.00 0.00 69 1007.9
20260506081803 21 129 0.0 4.8 0.00 0.00 0.00 68 1007.8
20260506080804 21 0 0.0 4.8 0.00 0.00 0.00 68 1007.7
20260506080303 21 32 0.0 4.8 0.00 0.00 0.00 67 1007.6
20260506073303 21 308 0.0 4.8 0.00 0.00 0.00 66 1007.8
20260506072803 21 293 1.6 16.1 0.00 0.00 0.00 66 1007.7
20260506072305 21 352 0.0 16.1 0.00 0.00 0.00 66 1007.6
20260506070803 21 340 0.0 19.3 0.00 0.00 0.00 65 1007.7
20260506060802 21 349 0.0 4.8 0.00 0.00 0.00 64 1008.0
20260506060303 21 338 0.0 4.8 0.00 0.00 0.00 64 1008.2
20260506051303 21 352 0.0 4.8 0.00 0.00 0.00 62 1008.7
20260506044803 21 29 0.0 3.2 0.00 0.00 0.00 62 1008.7
20260506043803 21 317 0.0 4.8 0.00 0.00 0.00 62 1009.0
20260506041303 21 298 0.0 0.0 0.00 0.00 0.00 62 1009.2
20260506040310 21 298 0.0 1.6 0.00 0.00 0.00 62 1009.6
20260506035803 21 82 0.0 0.0 0.00 0.00 0.00 62 1009.5
20260506035305 21 82 0.0 0.0 0.00 0.00 0.00 62 1009.5
20260506034803 21 82 0.0 1.6 0.00 0.00 0.00 62 1009.4
20260506032802 21 23 0.0 0.0 0.00 0.00 0.00 62 1009.5
20260506031803 21 23 0.0 1.6 0.00 0.00 0.00 62 1009.6
20260506031303 21 341 0.0 1.6 0.00 0.00 0.00 61 1009.7
20260506030302 21 334 0.0 1.6 0.00 0.00 0.00 61 1009.6
20260506025803 21 334 0.0 1.6 0.00 0.00 0.00 61 1009.7
20260506024802 21 328 0.0 1.6 0.00 0.00 0.00 61 1009.3
20260506023803 21 9 0.0 1.6 0.00 0.00 0.00 61 1009.4
20260506022803 22 161 0.0 8.0 0.00 0.00 0.00 60 1009.5
20260506021302 21 26 0.0 1.6 0.00 0.00 0.00 60 1009.7
20260506020802 21 24 0.0 0.0 0.00 0.00 0.00 59 1009.7
20260506020303 22 24 0.0 0.0 0.00 0.00 0.00 59 1009.6
20260506014803 22 42 0.0 0.0 0.00 0.00 0.00 59 1009.2
20260506014303 22 42 0.0 12.9 0.00 0.00 0.00 58 1009.3
20260506012803 22 266 0.0 1.6 0.00 0.00 0.00 58 1009.5
20260506005305 22 56 0.0 3.2 0.00 0.00 0.00 56 1009.4
20260506003802 22 120 0.0 1.6 0.00 0.00 0.00 56 1009.2
20260506002803 22 142 0.0 0.0 0.00 0.00 0.00 56 1009.1
20260506001303 22 142 0.0 1.6 0.00 0.00 0.00 56 1009.0
20260506000803 22 240 0.0 1.6 0.00 0.00 0.00 55 1009.1
20260506000303 22 240 0.0 1.6 0.00 0.00 0.00 56 1009.1
20260505235803 22 52 0.0 1.6 0.00 0.00 0.00 54 1009.2
20260505234803 22 85 0.0 1.6 0.00 0.00 0.00 54 1009.2
20260505234303 22 137 0.0 1.6 0.00 0.00 0.00 55 1009.2
20260505233303 22 346 0.0 11.3 0.00 0.00 0.00 53 1009.2
20260505232305 22 115 0.0 1.6 0.00 0.00 0.00 53 1009.6
20260505231803 22 115 0.0 1.6 0.00 0.00 0.00 53 1009.6
20260505231303 22 169 0.0 1.6 0.00 0.00 0.00 53 1009.7
20260505225803 22 239 0.0 0.0 0.00 0.00 0.00 52 1009.8
20260505224303 22 0 0.0 1.6 0.00 0.00 0.00 52 1009.7
20260505223302 22 136 0.0 4.8 0.00 0.00 0.00 51 1009.7